Vorticity
4 3 9 6 13 12 18 10 4 8 13 14 10 9 10 8 9 9 5 4 8 5 6 5 6 5 4 4 5 7 8 7 8 8 7 7 7 7 7 10 6 8 8
16 13 0 5 13 20 5 6 3 6 11 16 14 11 6 7 9 8 7 11 11 7 5 6 5 5 4 5 7 7 7 8 8 7 6 6 7 7 8 9 11 10 8
5 9 11 11 11 11 4 9 4 6 11 14 12 10 9 8 9 8 12 13 5 6 6 5 5 4 5 7 7 7 8 7 7 6 6 10 7 6 7 8 8 8 8
21 11 -3 11 6 4 7 7 5 9 13 15 14 12 9 10 16 12 9 7 7 5 6 5 4 5 6 6 6 7 8 6 5 6 8 9 9 9 9 8 10 7 7
17 18 9 9 7 1 4 4 -1 11 13 12 9 9 10 9 11 9 7 7 5 5 4 4 3 4 5 7 6 7 8 6 6 7 8 8 8 7 7 8 8 7 7
28 19 10 -0 7 5 1 -1 3 12 11 10 10 12 13 11 9 8 7 5 5 4 4 3 4 3 4 6 5 8 7 6 7 8 9 9 8 8 7 8 7 6 4
12 25 -0 1 3 4 4 2 6 8 11 10 12 12 9 7 5 4 4 4 3 3 2 3 4 5 4 5 5 8 7 7 8 9 8 9 8 8 7 6 5 4 4
9 20 22 10 3 3 5 -0 3 5 13 10 11 8 6 7 7 4 3 2 2 2 3 2 3 6 4 5 6 9 7 8 9 9 9 8 7 8 7 6 7 5 4
12 24 18 6 15 6 -0 4 2 7 12 11 9 8 8 8 4 2 1 2 2 2 2 2 3 5 4 5 8 8 8 9 9 9 8 8 7 7 7 8 8 7 9
6 28 20 11 21 -1 14 8 5 7 13 12 9 7 7 5 3 2 1 2 2 2 2 3 4 5 5 6 8 8 9 10 9 7 7 7 7 8 8 8 8 8 7
5 11 10 31 12 10 11 5 6 8 13 11 8 6 6 4 2 1 1 2 3 2 3 3 5 5 5 8 8 10 10 9 7 8 7 7 7 8 8 8 7 7 7
24 12 19 17 17 8 2 5 9 7 14 11 7 5 4 2 2 2 2 3 3 3 3 4 5 4 7 8 10 10 9 8 8 7 7 8 7 9 8 7 7 8 11
6 25 23 21 12 7 1 12 9 8 16 9 5 4 4 3 2 3 3 3 3 3 4 5 4 8 9 10 10 9 7 8 8 8 8 9 9 7 7 7 10 13 15
32 22 28 24 14 12 14 9 7 13 13 7 5 4 3 3 3 3 3 3 3 4 5 5 8 9 10 10 9 7 8 8 8 9 9 8 7 7 7 12 16 17 15
26 8 13 14 11 9 7 6 9 16 10 6 5 4 4 4 3 4 4 4 4 4 6 8 9 9 10 9 7 7 7 9 9 8 8 7 7 10 15 17 16 15 17
19 10 10 11 10 8 6 12 17 12 7 6 5 5 5 4 4 4 5 5 4 7 8 9 9 9 8 7 8 8 9 9 8 7 6 7 11 15 17 16 16 20 18
11 11 8 8 9 12 18 18 13 8 6 6 6 6 5 5 6 6 6 4 8 8 9 9 9 9 7 7 8 9 9 7 7 7 8 12 17 17 15 14 16 17 14
13 11 9 10 11 14 13 10 8 7 7 7 7 7 8 9 7 7 5 9 7 9 8 10 8 7 7 8 9 8 7 8 7 8 14 18 17 15 16 15 14 11 17
12 10 11 13 14 10 9 8 8 8 9 10 10 11 9 7 7 6 7 9 8 9 11 8 7 7 9 9 8 7 8 7 9 12 18 18 15 14 15 12 9 14 19
6 8 8 11 12 11 9 9 9 9 9 9 9 8 7 5 8 7 8 7 10 10 8 7 7 9 9 8 8 7 6 9 11 18 20 14 14 14 14 10 14 18 12
6 4 5 7 10 10 8 8 8 10 10 8 6 6 7 7 8 7 8 11 9 6 6 8 9 9 9 8 8 7 9 11 16 19 14 15 12 15 12 15 18 12 15
8 9 11 11 10 9 9 9 10 8 6 5 7 7 8 8 8 9 11 8 6 7 8 8 9 9 8 8 8 9 13 18 18 13 15 14 13 13 15 19 12 14 10
9 8 9 9 7 9 9 7 5 6 6 7 8 8 8 9 11 10 7 7 7 7 8 9 9 7 7 8 10 13 16 17 12 13 17 13 13 14 20 13 14 9 9
9 10 12 12 11 8 7 7 6 8 8 8 8 8 10 10 8 8 7 7 7 8 8 7 7 7 8 9 13 15 19 12 12 16 12 15 13 19 13 15 13 11 8
16 13 9 8 7 7 7 9 8 7 7 8 9 10 10 9 8 7 7 8 8 9 8 8 8 8 9 13 17 16 12 12 14 13 15 14 17 15 17 14 13 9 8
11 9 7 7 8 10 9 7 7 7 9 10 11 10 8 7 8 7 7 9 9 8 7 7 8 10 15 17 15 12 12 16 13 12 16 12 16 15 14 13 10 9 8
Height
3063 3068 3074 3076 3077 3080 3084 3087 3089 3090 3090 3092 3094 3096 3098 3099 3099 3099 3100 3100 3100 3101 3100 3099 3098 3097 3096 3094 3092 3090 3087 3084 3081 3079 3077 3073 3070 3067 3065 3062 3059 3056 3052
3055 3062 3066 3068 3071 3074 3077 3081 3082 3083 3084 3086 3087 3090 3092 3093 3094 3095 3095 3096 3096 3096 3096 3096 3095 3093 3092 3090 3087 3084 3081 3078 3075 3072 3069 3066 3065 3062 3059 3056 3052 3048 3045
3044 3052 3058 3061 3065 3068 3072 3074 3076 3077 3078 3079 3081 3084 3086 3087 3089 3090 3091 3092 3093 3092 3092 3092 3090 3089 3087 3085 3082 3079 3075 3072 3068 3064 3060 3055 3053 3049 3050 3049 3046 3041 3038
3036 3043 3048 3053 3058 3063 3066 3068 3070 3071 3072 3073 3076 3079 3081 3083 3084 3086 3087 3088 3088 3088 3088 3088 3087 3085 3082 3080 3076 3073 3069 3065 3062 3057 3053 3048 3042 3037 3033 3035 3035 3030 3026
3028 3033 3040 3046 3051 3055 3060 3062 3065 3066 3068 3070 3072 3074 3076 3079 3080 3082 3083 3084 3084 3084 3084 3083 3082 3080 3077 3074 3070 3066 3063 3059 3054 3049 3045 3041 3037 3031 3023 3017 3020 3020 3016
3019 3026 3032 3037 3042 3047 3052 3057 3060 3062 3064 3066 3068 3070 3073 3075 3077 3078 3079 3080 3081 3081 3080 3079 3077 3075 3071 3068 3064 3060 3056 3051 3046 3041 3036 3031 3026 3022 3015 3007 3002 2995 2996
3011 3016 3023 3029 3035 3040 3046 3051 3055 3057 3059 3062 3064 3066 3069 3072 3074 3075 3076 3077 3077 3076 3075 3074 3071 3069 3065 3061 3057 3053 3049 3044 3038 3034 3029 3023 3017 3012 3006 2999 2992 2984 2980
3005 3009 3015 3022 3028 3035 3041 3046 3050 3053 3055 3057 3060 3063 3066 3068 3069 3071 3072 3072 3072 3071 3070 3068 3065 3062 3059 3054 3050 3046 3040 3035 3030 3025 3020 3015 3008 3003 2996 2988 2980 2971 2968
2999 3003 3008 3014 3021 3029 3035 3040 3045 3048 3051 3053 3056 3059 3062 3064 3066 3067 3067 3067 3067 3066 3064 3062 3059 3056 3052 3047 3043 3037 3032 3027 3021 3016 3011 3006 2999 2993 2987 2980 2972 2962 2948
2993 2997 3001 3008 3015 3023 3029 3034 3038 3043 3046 3049 3052 3055 3058 3060 3061 3062 3063 3062 3062 3060 3058 3056 3053 3049 3044 3039 3034 3029 3023 3018 3013 3007 3002 2996 2989 2983 2976 2968 2961 2953 2943
2985 2990 2996 3002 3011 3017 3023 3028 3033 3037 3041 3045 3048 3051 3054 3056 3057 3058 3058 3058 3056 3055 3052 3049 3045 3041 3036 3031 3026 3020 3015 3010 3005 2999 2992 2986 2979 2972 2965 2956 2948 2939 2930
2977 2982 2989 2997 3004 3011 3018 3023 3028 3033 3037 3040 3044 3047 3050 3051 3052 3053 3053 3052 3050 3048 3045 3042 3038 3033 3028 3023 3017 3012 3007 3001 2995 2989 2982 2976 2968 2960 2952 2943 2934 2926 2917
2970 2976 2982 2989 2998 3006 3013 3018 3023 3028 3032 3036 3040 3043 3045 3047 3048 3048 3047 3046 3044 3042 3038 3035 3030 3026 3021 3016 3009 3003 2997 2991 2985 2978 2971 2964 2955 2947 2938 2929 2920 2912 2903
2966 2971 2978 2985 2994 3002 3009 3014 3019 3024 3028 3032 3036 3038 3040 3042 3043 3042 3041 3040 3038 3035 3031 3027 3023 3018 3012 3006 3000 2994 2988 2982 2976 2969 2961 2952 2943 2934 2925 2916 2906 2896 2887
2964 2971 2980 2986 2993 3000 3005 3010 3015 3020 3024 3028 3031 3034 3036 3037 3037 3037 3036 3034 3031 3028 3024 3019 3014 3009 3003 2997 2991 2985 2979 2972 2965 2958 2949 2941 2932 2922 2913 2903 2894 2885 2876
2965 2972 2980 2987 2993 2998 3003 3008 3012 3017 3021 3025 3028 3029 3031 3031 3032 3031 3030 3027 3024 3020 3016 3011 3006 3000 2994 2988 2982 2975 2968 2962 2954 2946 2938 2929 2921 2912 2903 2894 2884 2876 2867
2969 2975 2983 2988 2993 2997 3002 3006 3011 3015 3018 3021 3023 3025 3026 3026 3026 3025 3023 3020 3017 3012 3007 3002 2997 2991 2985 2980 2974 2967 2959 2951 2943 2935 2927 2919 2909 2900 2892 2884 2875 2867 2861
2970 2976 2983 2987 2991 2996 3000 3004 3008 3012 3015 3017 3019 3020 3021 3021 3020 3018 3016 3013 3008 3004 2999 2994 2988 2984 2978 2971 2964 2956 2949 2941 2933 2925 2918 2908 2899 2890 2880 2871 2862 2857 2852
2973 2979 2983 2987 2991 2995 2999 3002 3006 3009 3011 3013 3014 3015 3015 3015 3014 3012 3008 3004 3000 2996 2991 2986 2982 2975 2970 2962 2955 2947 2939 2931 2924 2916 2907 2897 2887 2878 2869 2861 2854 2849 2844
2974 2979 2983 2987 2990 2994 2997 3001 3003 3005 3007 3008 3009 3010 3010 3009 3007 3004 3001 2998 2994 2989 2985 2980 2973 2966 2960 2952 2945 2937 2928 2921 2913 2905 2896 2887 2877 2869 2862 2854 2847 2840 2836
2976 2979 2983 2987 2990 2993 2996 2998 3000 3002 3004 3005 3005 3005 3004 3002 2999 2997 2995 2990 2986 2982 2977 2972 2966 2958 2951 2943 2936 2928 2920 2911 2902 2893 2886 2878 2870 2862 2855 2849 2841 2835 2828
2978 2981 2984 2986 2989 2992 2994 2996 2998 2999 3000 3001 3001 2999 2998 2996 2994 2991 2987 2984 2979 2974 2969 2964 2958 2951 2943 2935 2927 2920 2912 2902 2892 2885 2877 2869 2861 2855 2849 2842 2836 2830 2824
2979 2981 2984 2986 2988 2990 2992 2994 2996 2997 2997 2996 2995 2994 2993 2991 2988 2985 2981 2976 2972 2967 2961 2954 2948 2941 2935 2928 2920 2911 2902 2893 2885 2877 2869 2862 2855 2849 2843 2836 2830 2824 2819
2979 2981 2983 2985 2987 2989 2991 2993 2993 2993 2993 2992 2991 2989 2988 2985 2982 2979 2975 2971 2966 2959 2952 2945 2938 2931 2925 2917 2908 2899 2890 2883 2875 2868 2862 2855 2849 2842 2837 2831 2827 2821 2816
2978 2980 2982 2985 2986 2988 2989 2990 2990 2989 2989 2988 2986 2985 2983 2980 2977 2974 2969 2964 2957 2950 2942 2935 2928 2921 2914 2905 2896 2888 2881 2874 2868 2861 2855 2849 2843 2838 2832 2828 2823 2818 2812
2978 2980 2982 2984 2985 2986 2986 2986 2986 2986 2985 2984 2982 2980 2978 2975 2972 2967 2963 2956 2950 2944 2936 2929 2921 2914 2905 2897 2890 2883 2876 2869 2862 2856 2849 2843 2837 2832 2827 2823 2819 2814 2808